Tracking 25953 objects as of 16-Aug-2022
HD Live streaming from Space Station
objects crossing your sky now

SPACEBEENZ-19

Track SPACEBEENZ-19 now!
10-day predictions


NORAD ID: 52404
Int'l Code: 2022-047L
Perigee: 523.1 km
Apogee: 535.1 km
Inclination: 97.4 °
Period: 95.1 minutes
Semi major axis: 6900 km
RCS: Unknown
Launch date: May 2, 2022
Source: United States (US)
Launch site: Rocket Lab Launch Complex (RLLC)
aabbcc
Your satellite tracking list
Your tracking list is empty




NASA's NSSDC Master Catalog

Two Line Element Set (TLE):
1 52404U 22047L   22227.68574478  .00007236  00000-0  39422-3 0  9995
2 52404  97.4481 311.3241 0008739 340.2073  19.8819 15.14674755 17314
Source of the keplerian elements: AFSPC